Time,TemperatureF,DewpointF,PressureIn,WindDirection,WindDirectionDegrees,WindSpeedMPH,WindSpeedGustMPH,Humidity,HourlyPrecipIn,Conditions,Clouds,dailyrainin,SoftwareType,DateUTC
2013-03-02 00:01:00,50.0,47.0,-100.00,ESE,120,3.0,6.0,89,-99.99,,,-99.99,,2013-03-02 08:01:00,
2013-03-02 00:10:00,49.0,47.0,-100.00,SSE,155,0.0,6.0,92,-99.99,,,-99.99,,2013-03-02 08:10:00,
2013-03-02 01:01:00,49.0,47.0,-100.00,SSE,155,0.0,6.0,92,-99.99,,,-99.99,,2013-03-02 09:01:00,
2013-03-02 01:10:00,47.0,46.0,-100.00,NE,55,1.0,6.0,96,-99.99,,,-99.99,,2013-03-02 09:10:00,
2013-03-02 02:01:00,47.0,46.0,-100.00,NE,55,1.0,6.0,96,-99.99,,,-99.99,,2013-03-02 10:01:00,
2013-03-02 02:10:00,47.0,46.0,-100.00,ENE,60,1.0,5.0,96,-99.99,,,-99.99,,2013-03-02 10:10:00,
2013-03-02 03:01:00,47.0,46.0,-100.00,ENE,60,1.0,5.0,96,-99.99,,,-99.99,,2013-03-02 11:01:00,
2013-03-02 03:10:00,47.0,46.0,-100.00,ESE,110,6.0,7.0,96,-99.99,,,-99.99,,2013-03-02 11:10:00,
2013-03-02 04:02:00,47.0,46.0,-100.00,ESE,110,6.0,7.0,96,-99.99,,,-99.99,,2013-03-02 12:02:00,
2013-03-02 04:10:00,46.0,45.0,-100.00,ENE,60,1.0,7.0,96,-99.99,,,-99.99,,2013-03-02 12:10:00,
2013-03-02 05:01:00,46.0,45.0,-100.00,ENE,60,1.0,7.0,96,-99.99,,,-99.99,,2013-03-02 13:01:00,
2013-03-02 05:10:00,46.0,45.0,-100.00,East,80,2.0,3.0,96,-99.99,,,-99.99,,2013-03-02 13:10:00,
2013-03-02 06:01:00,46.0,45.0,-100.00,East,80,2.0,3.0,96,-99.99,,,-99.99,,2013-03-02 14:01:00,
2013-03-02 06:10:00,46.0,44.0,-100.00,NNE,20,2.0,7.0,92,-99.99,,,-99.99,,2013-03-02 14:10:00,
2013-03-02 07:02:00,46.0,44.0,-100.00,NNE,20,2.0,7.0,92,-99.99,,,-99.99,,2013-03-02 15:02:00,
2013-03-02 07:10:00,46.0,44.0,-100.00,ENE,65,1.0,6.0,92,-99.99,,,-99.99,,2013-03-02 15:10:00,
2013-03-02 08:01:00,46.0,44.0,-100.00,ENE,65,1.0,6.0,92,-99.99,,,-99.99,,2013-03-02 16:01:00,
2013-03-02 08:10:00,48.0,45.0,-100.00,ESE,105,2.0,3.0,89,-99.99,,,-99.99,,2013-03-02 16:10:00,
2013-03-02 09:01:00,48.0,45.0,-100.00,ESE,105,2.0,3.0,89,-99.99,,,-99.99,,2013-03-02 17:01:00,
2013-03-02 09:10:00,53.0,47.0,-100.00,NNE,15,0.0,3.0,79,-99.99,,,-99.99,,2013-03-02 17:10:00,
2013-03-02 10:01:00,53.0,47.0,-100.00,NNE,15,0.0,3.0,79,-99.99,,,-99.99,,2013-03-02 18:01:00,
2013-03-02 10:10:00,53.0,47.0,-100.00,NNW,330,1.0,3.0,79,-99.99,,,-99.99,,2013-03-02 18:10:00,
2013-03-02 11:01:00,53.0,47.0,-100.00,NNW,330,1.0,3.0,79,-99.99,,,-99.99,,2013-03-02 19:01:00,
2013-03-02 11:10:00,55.0,46.0,-100.00,North,350,1.0,6.0,71,-99.99,,,-99.99,,2013-03-02 19:10:00,
2013-03-02 12:01:00,55.0,46.0,-100.00,North,350,1.0,6.0,71,-99.99,,,-99.99,,2013-03-02 20:01:00,
2013-03-02 12:10:00,55.0,46.0,-100.00,NNW,345,2.0,15.0,71,-99.99,,,-99.99,,2013-03-02 20:10:00,
2013-03-02 13:02:00,55.0,46.0,-100.00,NNW,345,2.0,15.0,71,-99.99,,,-99.99,,2013-03-02 21:02:00,
2013-03-02 13:10:00,55.0,45.0,-100.00,North,360,5.0,15.0,68,-99.99,,,-99.99,,2013-03-02 21:10:00,
2013-03-02 14:01:00,55.0,45.0,-100.00,North,360,5.0,15.0,68,-99.99,,,-99.99,,2013-03-02 22:01:00,
2013-03-02 14:10:00,55.0,46.0,-100.00,NW,305,1.0,6.0,71,-99.99,,,-99.99,,2013-03-02 22:10:00,
2013-03-02 15:01:00,55.0,46.0,-100.00,NW,305,1.0,6.0,71,-99.99,,,-99.99,,2013-03-02 23:01:00,
2013-03-02 15:10:00,51.0,49.0,-100.00,North,360,1.0,3.0,92,-99.99,,,-99.99,,2013-03-02 23:10:00,
2013-03-02 16:02:00,51.0,49.0,-100.00,North,360,1.0,3.0,92,-99.99,,,-99.99,,2013-03-03 00:02:00,
2013-03-02 16:10:00,50.0,48.0,-100.00,NW,325,1.0,12.0,92,-99.99,,,-99.99,,2013-03-03 00:10:00,
2013-03-02 17:01:00,50.0,48.0,-100.00,NW,325,1.0,12.0,92,-99.99,,,-99.99,,2013-03-03 01:01:00,
2013-03-02 17:10:00,48.0,46.0,-100.00,North,355,1.0,6.0,92,-99.99,,,-99.99,,2013-03-03 01:10:00,
2013-03-02 18:01:00,48.0,46.0,-100.00,North,355,1.0,6.0,92,-99.99,,,-99.99,,2013-03-03 02:01:00,
2013-03-02 18:10:00,41.0,40.0,-100.00,East,100,2.0,5.0,96,-99.99,,,-99.99,,2013-03-03 02:10:00,
2013-03-02 19:01:00,41.0,40.0,-100.00,East,100,2.0,5.0,96,-99.99,,,-99.99,,2013-03-03 03:01:00,
2013-03-02 19:10:00,38.0,38.0,-100.00,WNW,290,1.0,7.0,100,-99.99,,,-99.99,,2013-03-03 03:10:00,
2013-03-02 20:01:00,38.0,38.0,-100.00,WNW,290,1.0,7.0,100,-99.99,,,-99.99,,2013-03-03 04:01:00,
2013-03-02 20:10:00,38.0,38.0,-100.00,ESE,115,2.0,5.0,100,-99.99,,,-99.99,,2013-03-03 04:10:00,
2013-03-02 21:01:00,38.0,38.0,-100.00,ESE,115,2.0,5.0,100,-99.99,,,-99.99,,2013-03-03 05:01:00,
2013-03-02 21:10:00,37.0,37.0,-100.00,East,95,3.0,6.0,100,-99.99,,,-99.99,,2013-03-03 05:10:00,
2013-03-02 22:01:00,37.0,37.0,-100.00,East,95,3.0,6.0,100,-99.99,,,-99.99,,2013-03-03 06:01:00,
2013-03-02 22:10:00,37.0,37.0,-100.00,North,360,2.0,8.0,100,-99.99,,,-99.99,,2013-03-03 06:10:00,
2013-03-02 23:01:00,37.0,37.0,-100.00,North,360,2.0,8.0,100,-99.99,,,-99.99,,2013-03-03 07:01:00,
2013-03-02 23:10:00,36.0,36.0,-100.00,NE,35,1.0,5.0,100,-99.99,,,-99.99,,2013-03-03 07:10:00,